This demonstration page uses our WeatherBlox Daily Observations layout. Learn more.

Hourly Observations for August 19, 2018

Temp ( °F °C ) Dew Point ( °F °C ) Humidity (%) Winds ( mph kmh ) Pressure ( in mb ) Visibility ( mi km ) Precip ( " mm )
12:15 am 00:15 Partly Cloudy 71 21.6 66 19 85 85 WSW 5 7 29.91 1013 10 16.09344 0 0
12:35 am 00:35 Mostly Cloudy 71 21.5 67 19.2 87 87 WSW 5 7 29.91 1013 10 16.09344 0 0
12:55 am 00:55 Cloudy 71 21.7 66 18.7 83 83 WSW 6 9 29.91 1013 10 16.09344 0 0
1:15 am 01:15 Cloudy 71 21.5 65 18.5 83 83 SW 5 7 29.91 1013 10 16.09344 0 0
1:35 am 01:35 Cloudy 70 21 65 18.2 84 84 WSW 7 11 29.91 1013 10 16.09344 0 0
1:55 am 01:55 Cloudy 70 21 64 17.5 81 81 SW 8 13 29.88 1012 10 16.09344 0 0
2:15 am 02:15 Cloudy 70 20.9 63 17 78 78 SW 7 11 29.88 1012 10 16.09344 0 0
2:35 am 02:35 Cloudy with Light Drizzle 68 19.9 63 17 83 83 WSW 9 15 29.88 1012 10 16.09344 0 0
2:55 am 02:55 Mostly Cloudy 66 19.1 63 17.2 89 89 W 9 15 29.91 1013 10 16.09344 0 0
3:15 am 03:15 Cloudy with Light Rain 66 18.8 64 17.5 92 92 W 9 15 29.91 1013 10 16.09344 0 0
3:35 am 03:35 Cloudy with Light Rain 65 18.1 63 17.2 95 95 WSW 12 19 29.91 1013 10 16.09344 0 0
3:55 am 03:55 Cloudy with Rain 64 17.9 64 17.5 98 98 W 12 19 29.91 1013 7 11.265408 0.03 0.762
4:15 am 04:15 Cloudy with Light Rain 64 17.6 64 17.5 99 99 W 9 15 29.91 1013 7 11.265408 0.02 0.508
4:35 am 04:35 Cloudy with Light Rain 64 17.5 64 17.5 100 100 W 9 15 29.91 1013 7 11.265408 0.04 1.016
4:55 am 04:55 Cloudy with Rain 64 17.5 64 17.5 100 100 W 7 11 29.91 1013 7 11.265408 0.07 1.778
5:15 am 05:15 Cloudy with Light Rain 63 17.3 63 17.2 99 99 W 3 6 29.91 1013 7 11.265408 0.03 0.762
5:35 am 05:35 Cloudy with Heavy Rain 63 17.3 63 17.2 99 99 WNW 5 7 29.91 1013 5 8.04672 0.09 2.286
5:55 am 05:55 Cloudy with Light Rain 63 17.2 63 17.2 100 100 WNW 3 6 29.91 1013 7 11.265408 0.12 3.048
6:15 am 06:15 Cloudy with Light Rain 63 17.3 63 17.3 100 100 NNW 7 11 29.91 1013 7 11.265408 0.02 0.508
6:35 am 06:35 Cloudy with Rain 63 17.3 63 17.3 100 100 NNW 7 11 29.91 1013 5 8.04672 0.06 1.524
6:55 am 06:55 Cloudy with Rain 63 17.3 63 17.3 100 100 NNW 6 9 29.91 1013 5 8.04672 0.1 2.54
7:15 am 07:15 Cloudy with Light Rain 63 17.3 63 17.3 100 100 N 7 11 29.88 1012 7 11.265408 0.02 0.508
7:35 am 07:35 Cloudy with Rain 63 17.2 63 17.2 100 100 N 7 11 29.88 1012 10 16.09344 0.03 0.762
7:55 am 07:55 Cloudy with Drizzle 63 17.3 63 17.3 100 100 N 6 9 29.91 1013 10 16.09344 0.03 0.762
8:15 am 08:15 Cloudy with Rain 63 17.3 63 17.3 100 100 N 5 7 29.91 1013 7 11.265408 0.01 0.254
8:35 am 08:35 Cloudy with Rain 63 17.3 63 17.3 100 100 NNW 5 7 29.91 1013 4 6.437376 0.06 1.524
8:55 am 08:55 Cloudy with Heavy Rain 63 17.2 63 17.2 100 100 N 5 7 29.91 1013 2.5 4.02336 0.17 4.318
9:15 am 09:15 Cloudy with Rain 63 17.2 63 17.2 100 100 NNE 3 6 29.91 1013 2.5 4.02336 0.07 1.778
9:35 am 09:35 Cloudy with Rain 63 17.3 63 17.3 100 100 N 3 6 29.91 1013 2.5 4.02336 0.14 3.556
9:55 am 09:55 Cloudy with Rain 64 17.5 64 17.5 100 100 NE 3 6 29.91 1013 5 8.04672 0.17 4.318
10:15 am 10:15 Cloudy with Light Rain 64 17.5 64 17.5 100 100 NE 3 6 29.88 1012 7 11.265408 0.01 0.254
10:35 am 10:35 Cloudy with Light Rain 64 17.6 64 17.6 100 100 NNE 3 6 29.91 1013 5 8.04672 0.02 0.508
10:55 am 10:55 Mostly Cloudy with Light Rain 64 18 64 18 100 100 Calm 29.91 1013 10 16.09344 0.03 0.762
11:15 am 11:15 Mostly Cloudy with Light Drizzle 65 18.4 65 18.1 98 98 Calm 29.91 1013 10 16.09344 0 0
11:35 am 11:35 Mostly Cloudy with Light Rain 66 18.8 65 18.2 96 96 NE 3 6 29.91 1013 10 16.09344 0 0
11:55 am 11:55 Mostly Cloudy 66 19 64 17.7 92 92 Calm 29.91 1013 10 16.09344 0 0
12:15 pm 12:15 Cloudy 66 19 64 17.8 93 93 Calm 29.91 1013 10 16.09344 0 0
12:35 pm 12:35 Cloudy 67 19.2 64 17.9 92 92 Calm 29.88 1012 10 16.09344 0 0
12:55 pm 12:55 Cloudy 67 19.4 64 17.8 91 91 Calm 29.88 1012 10 16.09344 0 0
1:15 pm 13:15 Mostly Cloudy 68 20 64 17.9 88 88 Calm 29.85 1011 10 16.09344 0 0
1:35 pm 13:35 Partly Cloudy 69 20.7 64 17.9 84 84 Calm 29.85 1011 10 16.09344 0 0
1:55 pm 13:55 Mostly Cloudy 70 21 64 17.9 83 83 Calm 29.85 1011 10 16.09344 0 0
2:15 pm 14:15 Mostly Cloudy 70 21.2 65 18.1 83 83 Calm 29.85 1011 10 16.09344 0 0
2:35 pm 14:35 Mostly Cloudy 70 21.1 64 17.7 81 81 Calm 29.83 1010 10 16.09344 0 0
2:55 pm 14:55 Mostly Cloudy 70 21.3 65 18.2 83 83 N 3 6 29.83 1010 10 16.09344 0 0
3:15 pm 15:15 Partly Cloudy 71 21.7 65 18.2 81 81 Calm 29.83 1010 10 16.09344 0 0
3:35 pm 15:35 Partly Cloudy 73 22.6 64 17.6 73 73 Calm 29.8 1009 10 16.09344 0 0
3:55 pm 15:55 Partly Cloudy 73 22.5 64 17.7 74 74 Calm 29.8 1009 10 16.09344 0 0
4:15 pm 16:15 Cloudy 72 22.3 64 17.6 75 75 NE 3 6 29.8 1009 10 16.09344 0 0
4:35 pm 16:35 Partly Cloudy 73 22.6 63 17.3 72 72 N 3 6 29.77 1008 10 16.09344 0 0
4:55 pm 16:55 Partly Cloudy 74 23.1 63 17.4 70 70 NNE 3 6 29.77 1008 10 16.09344 0 0
5:15 pm 17:15 Mostly Cloudy 73 22.7 63 17.2 71 71 NNE 6 9 29.77 1008 10 16.09344 0 0
5:35 pm 17:35 Cloudy 72 22.2 64 17.5 75 75 N 3 6 29.77 1008 10 16.09344 0 0
5:55 pm 17:55 Mostly Cloudy 71 21.7 63 17.2 76 76 N 3 6 29.8 1009 10 16.09344 0 0
6:15 pm 18:15 Cloudy with Nearby Thunderstorms 70 21.2 63 17.1 78 78 N 5 7 29.8 1009 10 16.09344 0 0
6:35 pm 18:35 Cloudy with Light Rain 68 20 65 18.3 90 90 N 5 7 29.8 1009 10 16.09344 0 0
6:55 pm 18:55 Partly Cloudy 67 19.7 66 18.7 94 94 NNE 5 7 29.8 1009 10 16.09344 0 0
7:15 pm 19:15 Sunny 67 19.6 66 18.7 95 95 Calm 29.8 1009 10 16.09344 0 0
7:35 pm 19:35 Partly Cloudy with Nearby Thunderstorms 67 19.7 66 18.9 95 95 W 5 7 29.8 1009 10 16.09344 0 0
7:55 pm 19:55 Cloudy 66 18.8 64 17.5 92 92 Calm 29.83 1010 10 16.09344 0 0
8:15 pm 20:15 Cloudy with Heavy Rain 64 17.7 62 16.9 95 95 NW 14 22 29.85 1011 1.25 2.01168 0.49 12.446
8:35 pm 20:35 Cloudy with Light Rain 64 17.5 63 17.3 99 99 NNW 3 6 29.85 1011 7 11.265408 0.67 17.018
8:55 pm 20:55 Cloudy with Light Rain 64 17.8 64 17.8 100 100 NNW 6 9 29.85 1011 7 11.265408 0.68 17.272
9:15 pm 21:15 Cloudy with Rain 64 17.8 64 17.8 100 100 NNW 9 15 29.88 1012 7 11.265408 0.03 0.762
9:35 pm 21:35 Cloudy with Light Rain 62 16.8 61 16.2 96 96 NNW 13 20 29.88 1012 10 16.09344 0.07 1.778
9:55 pm 21:55 Cloudy with Light Drizzle 61 16.3 61 16.2 99 99 NNW 8 13 29.88 1012 10 16.09344 0.07 1.778
10:15 pm 22:15 Cloudy with Light Rain 62 16.5 62 16.5 100 100 NNW 8 13 29.91 1013 10 16.09344 0.01 0.254
10:35 pm 22:35 Cloudy with Light Rain 62 16.6 62 16.6 100 100 NW 10 17 29.91 1013 7 11.265408 0.02 0.508
10:55 pm 22:55 Cloudy with Rain 62 16.6 62 16.6 100 100 NNW 9 15 29.91 1013 7 11.265408 0.05 1.27
11:15 pm 23:15 Cloudy with Light Rain 62 16.5 62 16.5 100 100 NNW 9 15 29.91 1013 10 16.09344 0.02 0.508
11:35 pm 23:35 Cloudy with Rain 62 16.4 62 16.4 100 100 NNW 9 15 29.91 1013 7 11.265408 0.06 1.524
11:55 pm 23:55 Cloudy with Rain 61 16.2 61 16.2 100 100 NNW 9 15 29.88 1012 10 16.09344 0.08 2.032

Powered by AerisWeather